Location: White Mills Observatory
(37.5374°N, 86.0303°W)
Time: 19:09:46
(UTC-05:00)

Amateur Radio Satellites - All Passes

Search period start: 26 November 2014 18:39
Search period end: 27 November 2014 18:39
Location: White Mills Observatory, 37.5374°N, 86.0303°W

Satellite Date Start Highest point End Downlink Frequencies (MHz)
Time Altitude Azimuth
PCSat 26 Nov 18:52:05 18:55:51 20° 105° (ESE) 18:59:37 145.827
CUTE-I 26 Nov 18:52:09 18:57:14 43° 261° (W) 19:02:20 437.470
AIST 1 26 Nov 18:57:33 18:58:35 11° 84° (E) 18:59:38
PHONESAT 2.4 26 Nov 18:58:12 19:01:55 74° 14° (NNE) 19:05:38 2401.200-2431.200
HO-68 26 Nov 18:59:14 19:02:32 14° 54° (NE) 19:05:49 435.675
GONETS M04 26 Nov 19:02:37 19:10:29 35° 73° (ENE) 19:18:15
VERMONT LUNAR 26 Nov 19:06:41 19:10:20 82° 199° (SSW) 19:13:57 437.305
STRAND 1 26 Nov 19:22:18 19:27:19 55° 101° (E) 19:32:17 437.568
PRISM 26 Nov 19:27:30 19:31:27 39° 288° (WNW) 19:35:22 437.425
CUTE 1.7 + AOD 2 26 Nov 19:41:15 19:41:59 10° 64° (ENE) 19:42:44 437.475
GOMX 1 26 Nov 19:51:27 19:52:48 11° 65° (ENE) 19:54:08 467.674
Cubesat XI-IV 26 Nov 19:54:57 19:56:33 11° 270° (W) 19:58:08 437.490
SEEDS 26 Nov 20:10:46 20:13:50 20° 68° (ENE) 20:16:55 437.485
CUBESAT XI-V 26 Nov 20:13:22 20:17:40 37° 289° (WNW) 20:21:54 437.345
BRITE-PL 26 Nov 20:20:26 20:24:55 34° 72° (ENE) 20:29:06 437.365/2234.400
BEESAT 3 26 Nov 20:21:20 20:25:23 73° 118° (ESE) 20:29:32 437.485
AAUSAT CUBESAT 2 26 Nov 20:25:54 20:29:07 22° 69° (ENE) 20:32:20 437.432
AIST 1 26 Nov 20:31:22 20:35:40 55° 279° (W) 20:40:02
PCSat 26 Nov 20:33:34 20:38:49 51° 301° (WNW) 20:44:07 145.827
PHONESAT 2.4 26 Nov 20:37:14 20:40:34 31° 210° (SSW) 20:43:52 2401.200-2431.200
BEESAT 2 26 Nov 20:37:22 20:41:28 82° 300° (WNW) 20:45:39 435.950
CANX-2 26 Nov 20:38:41 20:42:47 54° 75° (ENE) 20:46:55 2200.000
DOVE 4 26 Nov 20:40:57 20:44:51 28° 71° (ENE) 20:48:35 437.250
COMPASS 1 26 Nov 20:41:01 20:44:51 37° 72° (ENE) 20:48:43 437.405
HO-68 26 Nov 20:41:53 20:49:03 77° 72° (ENE) 20:56:15 435.675
DX 1 26 Nov 20:43:54 20:46:51 18° 66° (ENE) 20:49:48 434.975-435.025
VERMONT LUNAR 26 Nov 20:45:49 20:48:29 19° 214° (SW) 20:51:08 437.305
RS-15 26 Nov 20:47:13 20:53:13 16° 349° (N) 20:59:17 29.354- 29.394
GONETS M04 26 Nov 20:59:08 21:07:27 48° 271° (W) 21:15:42
STRAND 1 26 Nov 21:02:50 21:06:01 17° 296° (WNW) 21:09:11 437.568
CINEMA 3 26 Nov 21:10:57 21:14:56 34° 72° (ENE) 21:18:47 145.822/145.860
CUTE 1.7 + AOD 2 26 Nov 21:13:11 21:17:21 63° 259° (W) 21:21:33 437.475
ZACube-1 26 Nov 21:13:27 21:16:04 16° 67° (ENE) 21:18:41 437.345
AIST 2 26 Nov 21:15:13 21:19:24 67° 302° (WNW) 21:23:41 435.215
VELOX 1 26 Nov 21:18:11 21:20:15 13° 64° (ENE) 21:22:19 145.980
GOMX 1 26 Nov 21:25:39 21:30:27 68° 259° (WSW) 21:34:57 467.674
UKube-1 26 Nov 21:41:56 21:46:17 79° 76° (ENE) 21:50:39 .
AISAT 26 Nov 21:43:09 21:46:48 25° 69° (ENE) 21:50:26 437.250
SEEDS 26 Nov 21:45:48 21:49:28 29° 263° (W) 21:53:10 437.485
FUNcube-1 26 Nov 21:46:48 21:50:42 38° 73° (ENE) 21:54:34 145.935
Oscar 11 26 Nov 21:52:43 21:57:00 70° 259° (WSW) 22:01:18 145.826/435.025
CUBEBUG 1 26 Nov 21:55:25 21:56:52 11° 64° (ENE) 21:58:18 437.445
BRITE-PL 26 Nov 21:59:27 22:03:24 23° 264° (W) 22:07:10 437.365/2234.400
AAUSAT CUBESAT 2 26 Nov 22:01:09 22:04:39 26° 264° (W) 22:08:11 437.432
DELFI C3 26 Nov 22:01:29 22:05:30 64° 259° (W) 22:09:34 145.870
BEESAT 3 26 Nov 22:02:26 22:04:07 12° 316° (NW) 22:05:49 437.485
50 SAT 26 Nov 22:08:21 22:11:58 33° 72° (ENE) 22:15:35 437.505
UWE-3 26 Nov 22:14:41 22:18:56 80° 258° (WSW) 22:23:08 435.000/436.395/437.385
UNISAT 6 26 Nov 22:14:42 22:16:33 12° 92° (E) 22:18:23 437.425
CUBEBUG 2 26 Nov 22:16:16 22:20:31 65° 259° (W) 22:24:41 437.445
CANX-2 26 Nov 22:18:03 22:19:03 11° 269° (W) 22:20:03 2200.000
COMPASS 1 26 Nov 22:18:14 22:20:43 15° 267° (W) 22:23:13 437.405
DX 1 26 Nov 22:18:43 22:22:47 38° 261° (W) 22:26:53 434.975-435.025
DOVE 4 26 Nov 22:18:51 22:22:35 24° 264° (W) 22:26:10 437.250
HUMSAT D 26 Nov 22:24:43 22:28:49 66° 76° (ENE) 22:32:54 437.325/437.525
HO-68 26 Nov 22:32:53 22:37:22 18° 268° (W) 22:41:54 435.675
ISS 26 Nov 22:41:09 22:43:52 24° 132° (SE) 22:46:34 145.825
ANTELSAT 26 Nov 22:41:55 22:45:40 26° 96° (E) 22:49:27 437.575/2403.000
ZACube-1 26 Nov 22:48:15 22:52:10 37° 262° (W) 22:56:02 437.345
CINEMA 3 26 Nov 22:49:14 22:52:12 18° 266° (W) 22:55:07 145.822/145.860
POLYITAN 1 26 Nov 22:50:19 22:53:28 20° 95° (E) 22:56:35 437.675
QB50P2 26 Nov 22:51:55 22:55:09 21° 95° (E) 22:58:22 145.880/145.840
VELOX 1 26 Nov 22:51:57 22:56:20 56° 259° (W) 23:00:45 145.980
ESTCUBE 1 26 Nov 22:53:35 22:58:00 53° 74° (ENE) 23:02:26 437.505/2401.250
DUCHIFAT 1 26 Nov 22:57:14 23:00:39 24° 96° (E) 23:04:02 145.980
TISAT 1 26 Nov 23:02:11 23:04:39 15° 66° (ENE) 23:07:07 437.305
RS-15 26 Nov 23:03:51 23:11:50 21° 27° (NNE) 23:19:59 29.354- 29.394
DANDE 26 Nov 23:06:45 23:08:39 12° 74° (ENE) 23:10:42 436.750
SPROUT 26 Nov 23:14:15 23:17:11 18° 67° (ENE) 23:20:07 437.525
NANOSAT C BR1 26 Nov 23:16:21 23:20:20 40° 99° (E) 23:24:17 145.865
AISAT 26 Nov 23:19:29 23:23:18 27° 263° (W) 23:27:08 437.250
FUNcube-1 26 Nov 23:24:48 23:27:12 15° 267° (W) 23:29:36 145.935
QB50P1 26 Nov 23:26:16 23:30:24 53° 100° (E) 23:34:31 145.935-145.965
CUBEBUG 1 26 Nov 23:28:16 23:32:40 64° 259° (W) 23:37:06 437.445
BUGSAT 1 26 Nov 23:32:20 23:36:18 50° 100° (E) 23:40:13 437.445
TIGRISAT 26 Nov 23:34:58 23:39:26 82° 284° (WNW) 23:43:58 435.000
50 SAT 26 Nov 23:44:49 23:47:21 16° 266° (W) 23:49:54 437.505
UNISAT 6 26 Nov 23:49:14 23:53:36 55° 286° (WNW) 23:58:03 437.425
POPSAT HIP 1 26 Nov 23:51:09 23:55:22 76° 284° (WNW) 23:59:34 437.405
ITUPSAT 1 27 Nov 00:13:55 00:16:38 15° 64° (ENE) 00:19:21 437.325
CUSAT 1 27 Nov 00:17:15 00:22:09 71° 81° (E) 00:28:46 437.405
ISS 27 Nov 00:17:25 00:20:24 31° 327° (NNW) 00:23:23 145.825
ANTELSAT 27 Nov 00:18:38 00:22:23 27° 290° (WNW) 00:26:12 437.575/2403.000
SWISSCUBE 27 Nov 00:23:31 00:27:04 21° 66° (ENE) 00:30:37 437.505
POLYITAN 1 27 Nov 00:25:44 00:29:25 29° 289° (WNW) 00:33:05 437.675
QB50P2 27 Nov 00:27:25 00:31:03 28° 290° (WNW) 00:34:40 145.880/145.840
AUBIESAT-1 27 Nov 00:30:13 00:33:56 35° 66° (ENE) 00:37:59 437.475
DUCHIFAT 1 27 Nov 00:32:59 00:36:26 25° 290° (WNW) 00:39:53 145.980
ESTCUBE 1 27 Nov 00:33:05 00:35:10 13° 268° (W) 00:37:15 437.505/2401.250
M-CUBED/EXP-1 PRIME 27 Nov 00:35:58 00:39:49 45° 67° (ENE) 00:44:03 437.505
TISAT 1 27 Nov 00:36:04 00:40:08 42° 261° (W) 00:44:12 437.305
JUGNU 27 Nov 00:42:56 00:45:32 13° 176° (S) 00:48:09 437.505
DANDE 27 Nov 00:47:18 00:52:03 73° 262° (W) 00:58:31 436.750
SPROUT 27 Nov 00:49:01 00:52:59 36° 262° (W) 00:56:58 437.525
BEESAT 27 Nov 00:53:21 00:57:46 38° 71° (ENE) 01:02:12 436.000
NANOSAT C BR1 27 Nov 00:53:22 00:55:52 16° 294° (WNW) 00:58:23 145.865
SRMSAT 27 Nov 00:57:12 00:58:07 10° 169° (S) 00:59:02 437.500
QB50P1 27 Nov 01:04:09 01:05:49 12° 295° (WNW) 01:07:28 145.935-145.965
Oscar 19 27 Nov 01:08:48 01:11:54 16° 92° (E) 01:14:59 437.125/150
BUGSAT 1 27 Nov 01:09:50 01:11:20 12° 295° (WNW) 01:12:50 437.445
RS-15 27 Nov 01:15:50 01:27:01 64° 55° (NE) 01:38:39 29.354- 29.394
MaSat-1 27 Nov 01:42:58 01:44:45 19° 251° (WSW) 01:46:35 437.345
ITUPSAT 1 27 Nov 01:49:19 01:54:02 55° 259° (W) 01:58:47 437.325
STARS 27 Nov 01:58:47 02:02:21 25° 69° (ENE) 02:05:55 437.465
SWISSCUBE 27 Nov 02:00:11 02:04:39 38° 262° (W) 02:09:09 437.505
CUSAT 1 27 Nov 02:02:42 02:05:11 13° 269° (W) 02:07:57 437.405
ITAMSAT 1 27 Nov 02:03:33 02:07:20 20° 94° (E) 02:11:05 435.822/435.867
AUBIESAT-1 27 Nov 02:06:19 02:09:06 18° 263° (W) 02:12:02 437.475
YUBILEINY 27 Nov 02:10:56 02:18:46 38° 86° (E) 02:26:35 435.215
M-CUBED/EXP-1 PRIME 27 Nov 02:13:07 02:15:12 14° 265° (W) 02:17:23 437.505
JUGNU 27 Nov 02:31:23 02:33:42 12° 186° (S) 02:36:02 437.505
BEESAT 27 Nov 02:32:13 02:35:42 20° 266° (W) 02:39:13 436.000
KKS-1 27 Nov 02:40:34 02:45:01 74° 258° (WSW) 02:49:28 437.445
Gurwin Techsat 1B 27 Nov 02:41:07 02:45:38 28° 96° (E) 02:50:06 435.225
SRMSAT 27 Nov 02:43:33 02:46:26 14° 179° (S) 02:49:19 437.500
Oscar 19 27 Nov 02:46:30 02:51:32 55° 287° (WNW) 02:56:34 437.125/150
SO-50 27 Nov 03:03:05 03:06:37 23° 111° (ESE) 03:10:14 436.795
AO-7 27 Nov 03:25:11 03:29:37 15° 91° (E) 03:34:02 29.400- 29.500
RS-15 27 Nov 03:28:59 03:38:44 35° 254° (WSW) 03:48:53 29.354- 29.394
STARS 27 Nov 03:35:00 03:38:43 27° 264° (W) 03:42:27 437.465
PCSat 27 Nov 03:41:57 03:44:26 13° 44° (NE) 03:46:53 145.827
ITAMSAT 1 27 Nov 03:42:06 03:46:59 43° 289° (WNW) 03:51:49 435.822/435.867
HORYU 2 27 Nov 03:51:30 03:55:57 61° 101° (E) 04:00:24 437.375
MOZHAYETS 4 27 Nov 03:54:25 03:57:24 17° 66° (ENE) 04:00:24
YUBILEINY 27 Nov 04:07:05 04:15:21 44° 284° (WNW) 04:23:39 435.215
Gurwin Techsat 1B 27 Nov 04:20:51 04:25:34 33° 291° (WNW) 04:30:16 435.225
SRMSAT 27 Nov 04:33:03 04:34:45 11° 190° (S) 04:36:27 437.500
SO-50 27 Nov 04:42:49 04:46:56 35° 308° (NW) 04:51:12 436.795
BEESAT 3 27 Nov 04:43:32 04:47:05 26° 51° (NE) 04:50:36 437.485
BEESAT 2 27 Nov 04:59:43 05:03:35 34° 54° (NE) 05:07:23 435.950
ISS 27 Nov 05:11:08 05:13:37 19° 27° (NNE) 05:16:05 145.825
AO-7 27 Nov 05:14:57 05:23:23 86° 107° (ESE) 05:31:45 29.400- 29.500
PCSat 27 Nov 05:23:14 05:28:41 83° 63° (ENE) 05:34:05 145.827
MOZHAYETS 4 27 Nov 05:29:54 05:34:15 43° 262° (W) 05:38:40
HORYU 2 27 Nov 05:30:15 05:32:05 12° 296° (WNW) 05:33:55 437.375
JAS-2 27 Nov 05:30:45 05:37:20 45° 97° (E) 05:43:08 435.910
CUBESAT XI-V 27 Nov 05:39:10 05:42:05 17° 66° (ENE) 05:45:01 437.345
AIST 2 27 Nov 05:39:13 05:43:20 43° 55° (NE) 05:47:23 435.215
O/OREOS (USA 219) 27 Nov 05:50:49 05:55:05 45° 106° (ESE) 05:59:21 437.305
PRISM 27 Nov 06:16:03 06:20:13 69° 258° (WSW) 06:24:27 437.425
BEESAT 3 27 Nov 06:21:42 06:25:15 27° 248° (WSW) 06:28:44 437.485
Cubesat XI-IV 27 Nov 06:30:16 06:35:10 36° 98° (E) 06:40:00 437.490
STRAND 1 27 Nov 06:36:10 06:41:15 65° 74° (ENE) 06:46:21 437.568
BEESAT 2 27 Nov 06:38:32 06:41:38 20° 249° (WSW) 06:44:41 435.950
AIST 1 27 Nov 06:41:09 06:44:57 28° 77° (ENE) 06:48:42
ISS 27 Nov 06:47:14 06:50:27 52° 224° (SW) 06:53:40 145.825
AO-7 27 Nov 07:09:25 07:15:07 21° 306° (NW) 07:20:49 29.400- 29.500
PCSat 27 Nov 07:09:48 07:11:18 11° 258° (WSW) 07:12:48 145.827
CUTE-I 27 Nov 07:11:00 07:16:21 88° 104° (ESE) 07:21:39 437.470
CUBESAT XI-V 27 Nov 07:14:33 07:19:06 48° 261° (W) 07:23:41 437.345
JAS-2 27 Nov 07:16:12 07:22:01 29° 297° (WNW) 07:27:17 435.910
AIST 2 27 Nov 07:18:57 07:21:35 16° 251° (WSW) 07:24:13 435.215
O/OREOS (USA 219) 27 Nov 07:31:52 07:34:43 16° 302° (WNW) 07:37:33 437.305
GONETS M04 27 Nov 08:00:59 08:09:02 42° 87° (E) 08:17:08
Cubesat XI-IV 27 Nov 08:10:42 08:15:03 26° 293° (WNW) 08:19:22 437.490
HO-68 27 Nov 08:14:17 08:18:01 15° 91° (E) 08:21:43 435.675
STRAND 1 27 Nov 08:18:29 08:20:50 13° 269° (W) 08:23:12 437.568
AIST 1 27 Nov 08:19:12 08:22:24 20° 272° (W) 08:25:35
CANX-2 27 Nov 08:28:42 08:29:59 11° 91° (E) 08:31:15 2200.000
CUTE-I 27 Nov 08:54:06 08:55:37 11° 300° (WNW) 08:57:07 437.470
CUTE 1.7 + AOD 2 27 Nov 09:01:10 09:04:44 25° 96° (E) 09:08:18 437.475
GOMX 1 27 Nov 09:29:35 09:33:27 35° 98° (E) 09:37:25 467.674
SEEDS 27 Nov 09:32:00 09:36:10 50° 100° (E) 09:40:19 437.485
UKube-1 27 Nov 09:33:21 09:35:54 15° 93° (E) 09:38:25 .
ANTELSAT 27 Nov 09:40:32 09:43:24 18° 67° (ENE) 09:46:17 437.575/2403.000
Oscar 11 27 Nov 09:42:44 09:46:16 24° 95° (E) 09:49:48 145.826/435.025
POLYITAN 1 27 Nov 09:43:25 09:45:26 13° 65° (ENE) 09:47:27 437.675
QB50P2 27 Nov 09:44:43 09:46:52 14° 65° (ENE) 09:49:01 145.880/145.840
DELFI C3 27 Nov 09:45:06 09:48:14 21° 95° (E) 09:51:22 145.870
AAUSAT CUBESAT 2 27 Nov 09:46:03 09:50:12 54° 100° (E) 09:54:21 437.432
DUCHIFAT 1 27 Nov 09:49:29 09:51:57 15° 66° (ENE) 09:54:25 145.980
GONETS M04 27 Nov 09:57:44 10:05:48 40° 286° (WNW) 10:13:58
HO-68 27 Nov 09:59:16 10:06:29 86° 287° (WNW) 10:13:38 435.675
CANX-2 27 Nov 10:02:01 10:06:13 55° 285° (WNW) 10:10:25 2200.000
COMPASS 1 27 Nov 10:02:16 10:06:32 83° 284° (WNW) 10:10:47 437.405
BRITE-PL 27 Nov 10:05:06 10:09:10 58° 285° (WNW) 10:13:20 437.365/2234.400
UWE-3 27 Nov 10:07:14 10:10:38 23° 96° (E) 10:14:05 435.000/436.395/437.385
NANOSAT C BR1 27 Nov 10:08:00 10:11:28 25° 69° (ENE) 10:14:55 145.865
DX 1 27 Nov 10:09:02 10:13:09 40° 99° (E) 10:17:13 434.975-435.025
CUBEBUG 2 27 Nov 10:09:40 10:13:22 28° 97° (E) 10:17:09 437.445
HUMSAT D 27 Nov 10:13:16 10:15:05 13° 92° (E) 10:16:55 437.325/437.525
QB50P1 27 Nov 10:17:44 10:21:30 32° 71° (ENE) 10:25:17 145.935-145.965
DOVE 4 27 Nov 10:18:47 10:22:59 80° 283° (WNW) 10:27:20 437.250
BUGSAT 1 27 Nov 10:21:04 10:24:43 29° 70° (ENE) 10:28:22 437.445
TIGRISAT 27 Nov 10:32:13 10:36:26 69° 75° (ENE) 10:40:40 435.000
CUTE 1.7 + AOD 2 27 Nov 10:37:04 10:40:34 25° 290° (WNW) 10:44:03 437.475
ZACube-1 27 Nov 10:38:38 10:42:43 44° 99° (E) 10:46:52 437.345
POPSAT HIP 1 27 Nov 10:42:14 10:46:26 62° 75° (ENE) 10:50:39 437.405
CINEMA 3 27 Nov 10:44:18 10:48:31 68° 284° (WNW) 10:52:53 145.822/145.860
VELOX 1 27 Nov 10:45:12 10:49:08 31° 97° (E) 10:53:02 145.980
UNISAT 6 27 Nov 10:46:39 10:50:55 78° 258° (WSW) 10:55:12 437.425
ESTCUBE 1 27 Nov 10:50:25 10:52:32 13° 92° (E) 10:54:39 437.505/2401.250
UKube-1 27 Nov 11:08:09 11:12:14 41° 288° (WNW) 11:16:17 .
GOMX 1 27 Nov 11:08:41 11:11:20 17° 292° (WNW) 11:14:01 467.674
SEEDS 27 Nov 11:09:32 11:11:33 13° 294° (WNW) 11:13:33 437.485
AISAT 27 Nov 11:12:01 11:16:25 66° 102° (ESE) 11:20:47 437.250
FUNcube-1 27 Nov 11:13:11 11:17:25 71° 284° (WNW) 11:21:44 145.935
ANTELSAT 27 Nov 11:16:03 11:19:57 35° 262° (W) 11:23:52 437.575/2403.000
POLYITAN 1 27 Nov 11:16:50 11:20:57 49° 260° (W) 11:25:05 437.675
QB50P2 27 Nov 11:18:16 11:22:23 47° 260° (W) 11:26:30 145.880/145.840
Oscar 11 27 Nov 11:18:44 11:22:22 27° 290° (WNW) 11:26:01 145.826/435.025
DELFI C3 27 Nov 11:19:59 11:23:31 28° 289° (WNW) 11:27:02 145.870
CUBEBUG 1 27 Nov 11:20:01 11:23:42 26° 96° (E) 11:27:21 437.445
DUCHIFAT 1 27 Nov 11:23:26 11:27:28 42° 261° (W) 11:31:30 145.980
AAUSAT CUBESAT 2 27 Nov 11:23:45 11:25:24 12° 295° (WNW) 11:27:03 437.432
50 SAT 27 Nov 11:25:57 11:30:02 80° 102° (ESE) 11:34:08 437.505
SO-50 27 Nov 11:36:16 11:39:26 17° 45° (NE) 11:42:37 436.795
UWE-3 27 Nov 11:43:32 11:47:08 27° 289° (WNW) 11:50:48 435.000/436.395/437.385
NANOSAT C BR1 27 Nov 11:43:45 11:47:15 25° 264° (W) 11:50:45 145.865
DX 1 27 Nov 11:46:20 11:49:03 17° 294° (WNW) 11:51:45 434.975-435.025
CUBEBUG 2 27 Nov 11:46:38 11:49:56 22° 291° (WNW) 11:53:18 437.445
HUMSAT D 27 Nov 11:47:07 11:51:07 46° 286° (WNW) 11:55:10 437.325/437.525
HO-68 27 Nov 11:49:12 11:53:08 16° 304° (NW) 11:57:04 435.675
QB50P1 27 Nov 11:54:24 11:57:26 19° 266° (W) 12:00:30 145.935-145.965
BUGSAT 1 27 Nov 11:56:56 12:00:12 21° 265° (W) 12:03:27 437.445
ZACube-1 27 Nov 12:16:23 12:18:44 15° 293° (WNW) 12:21:07 437.345
VELOX 1 27 Nov 12:22:10 12:25:31 22° 292° (WNW) 12:28:52 145.980
TISAT 1 27 Nov 12:23:20 12:27:08 33° 98° (E) 12:30:56 437.305
Oscar 19 27 Nov 12:23:54 12:27:31 20° 65° (ENE) 12:31:09 437.125/150
YUBILEINY 27 Nov 12:24:48 12:29:37 16° 63° (ENE) 12:34:25 435.215
ESTCUBE 1 27 Nov 12:25:17 12:29:42 52° 287° (WNW) 12:34:04 437.505/2401.250
SPROUT 27 Nov 12:37:39 12:41:45 43° 99° (E) 12:45:49 437.525
AISAT 27 Nov 12:51:16 12:52:28 11° 297° (WNW) 12:53:40 437.250
CUBEBUG 1 27 Nov 12:56:28 12:59:57 24° 291° (WNW) 13:03:26 437.445
BEESAT 27 Nov 12:58:09 12:59:36 11° 91° (E) 13:01:03 436.000
SO-50 27 Nov 13:15:35 13:20:27 68° 242° (WSW) 13:25:18 436.795
ITAMSAT 1 27 Nov 13:19:36 13:23:53 27° 67° (ENE) 13:28:11 435.822/435.867
PHONESAT 2.4 27 Nov 13:30:13 13:32:43 17° 145° (SE) 13:35:15 2401.200-2431.200
CUSAT 1 27 Nov 13:30:28 13:33:09 62° 280° (W) 13:35:44 437.405
VERMONT LUNAR 27 Nov 13:34:21 13:37:23 26° 149° (SSE) 13:40:26 437.305
AUBIESAT-1 27 Nov 13:49:15 13:53:57 45° 103° (ESE) 13:58:29 437.475
ITUPSAT 1 27 Nov 13:52:09 13:56:45 44° 99° (E) 14:01:18 437.325
M-CUBED/EXP-1 PRIME 27 Nov 13:55:30 14:00:22 58° 105° (ESE) 14:05:04 437.505
TISAT 1 27 Nov 13:59:50 14:02:44 18° 293° (WNW) 14:05:37 437.305
Gurwin Techsat 1B 27 Nov 14:00:15 14:05:04 37° 70° (ENE) 14:09:54 435.225
Oscar 19 27 Nov 14:01:37 14:06:29 45° 261° (W) 14:11:24 437.125/150
SWISSCUBE 27 Nov 14:02:21 14:07:07 64° 101° (ESE) 14:11:51 437.505
DANDE 27 Nov 14:03:52 14:06:06 22° 282° (WNW) 14:08:13 436.750
SPROUT 27 Nov 14:15:03 14:17:27 15° 294° (WNW) 14:19:52 437.525
YUBILEINY 27 Nov 14:19:00 14:27:45 85° 84° (E) 14:36:26 435.215
AO-7 27 Nov 14:22:19 14:27:59 21° 54° (NE) 14:33:40 29.400- 29.500
BEESAT 27 Nov 14:33:06 14:37:52 66° 286° (WNW) 14:42:35 436.000
KKS-1 27 Nov 14:34:29 14:38:07 24° 96° (E) 14:41:45 437.445
HORYU 2 27 Nov 14:48:20 14:52:31 43° 72° (ENE) 14:56:44 437.375
ITAMSAT 1 27 Nov 14:58:28 15:03:11 34° 262° (W) 15:07:56 435.822/435.867
PHONESAT 2.4 27 Nov 15:07:26 15:11:08 75° 160° (SSE) 15:14:51 2401.200-2431.200
MaSat-1 27 Nov 15:08:16 15:11:17 75° 114° (ESE) 15:14:01 437.345
VERMONT LUNAR 27 Nov 15:12:01 15:15:38 82° 344° (NNW) 15:19:16 437.305
AUBIESAT-1 27 Nov 15:24:59 15:28:33 21° 299° (WNW) 15:32:03 437.475
STARS 27 Nov 15:26:17 15:30:39 64° 101° (ESE) 15:35:01 437.465
ITUPSAT 1 27 Nov 15:31:01 15:34:16 18° 295° (WNW) 15:37:31 437.325
M-CUBED/EXP-1 PRIME 27 Nov 15:31:47 15:34:52 17° 301° (WNW) 15:37:55 437.505
RS-15 27 Nov 15:37:16 15:47:33 48° 110° (ESE) 15:57:45 29.354- 29.394
JAS-2 27 Nov 15:40:34 15:45:56 21° 59° (ENE) 15:51:21 435.910
Gurwin Techsat 1B 27 Nov 15:40:45 15:45:04 25° 265° (W) 15:49:25 435.225
SWISSCUBE 27 Nov 15:42:11 15:44:25 13° 297° (WNW) 15:46:37 437.505
O/OREOS (USA 219) 27 Nov 16:02:28 16:06:55 63° 68° (ENE) 16:11:21 437.305
KKS-1 27 Nov 16:10:58 16:14:42 27° 291° (WNW) 16:18:25 437.445
AO-7 27 Nov 16:11:27 16:19:44 85° 253° (WSW) 16:28:07 29.400- 29.500
YUBILEINY 27 Nov 16:18:17 16:23:19 17° 282° (WNW) 16:28:20 435.215
HORYU 2 27 Nov 16:26:51 16:29:23 15° 267° (W) 16:31:57 437.375
PHONESAT 2.4 27 Nov 16:46:25 16:50:04 53° 356° (N) 16:53:43 2401.200-2431.200
VERMONT LUNAR 27 Nov 16:50:47 16:54:19 50° 1° (N) 16:57:52 437.305
CUTE-I 27 Nov 16:54:02 16:56:54 15° 62° (ENE) 16:59:46 437.470
STARS 27 Nov 17:05:17 17:06:34 11° 297° (WNW) 17:07:52 437.465
JAS-2 27 Nov 17:22:20 17:29:58 83° 257° (WSW) 17:37:54 435.910
MOZHAYETS 4 27 Nov 17:26:57 17:31:30 51° 100° (E) 17:36:01
O/OREOS (USA 219) 27 Nov 17:45:13 17:45:42 10° 263° (W) 17:46:11 437.305
RS-15 27 Nov 17:49:25 17:59:50 48° 311° (NW) 18:10:20 29.354- 29.394
Cubesat XI-IV 27 Nov 17:50:18 17:55:28 50° 72° (ENE) 18:00:39 437.490
PRISM 27 Nov 18:02:15 18:05:20 19° 95° (E) 18:08:23 437.425
AO-7 27 Nov 18:09:20 18:13:32 15° 270° (W) 18:17:46 29.400- 29.500
GONETS M04 27 Nov 18:14:42 18:20:23 18° 65° (ENE) 18:26:00
PCSat 27 Nov 18:22:54 18:25:26 13° 103° (ESE) 18:27:58 145.827
PHONESAT 2.4 27 Nov 18:25:23 18:29:06 71° 13° (NNE) 18:32:49 2401.200-2431.200
VERMONT LUNAR 27 Nov 18:29:21 18:32:59 89° 20° (NNE) 18:36:37 437.305
